Weather History for Perth, WE

Change the Weather History Date:

Thursday, June 5, 2014

  Actual Average Record
Temperature  
Mean Temperature 64 °F -  
Max Temperature 76 °F 66 °F 76 °F (2014)
Min Temperature 51 °F 49 °F 32 °F (2003)
Degree Days  
Heating Degree Days 2    
Growing Degree Days 14 (Base 50)    
Moisture  
Dew Point 46 °F    
Average Humidity 58    
Maximum Humidity 88    
Minimum Humidity 17    
Precipitation  
Precipitation 0.00 in 0.22 in - ()
Sea Level Pressure  
Sea Level Pressure 30.25 in    
Wind  
Wind Speed 8 mph ()    
Max Wind Speed 16 mph    
Max Gust Speed -    
Visibility 15.5 miles    
Events      
Averages and records for this station are not official NWS values.
T = Trace of Precipitation, MM = Missing Value Source: Averaged Metar Reports

Daily Weather History Graph

Daily Weather History Graph

Search for Another Location

Airport:

Trip Planner

Search our weather history database for the weather conditions in past years. The results will help you decide how hot, cold, wet, or windy it might be!

Date:

Astronomy

Jun. 05, 2014 Rise Set
Actual Time 7:09 AM AWST 5:18 PM AWST
Civil Twilight 6:43 AM AWST 5:45 PM AWST
Nautical Twilight 6:12 AM AWST 6:16 PM AWST
Astronomical Twilight 5:43 AM AWST 6:45 PM AWST
Moon 12:04 PM AWST (6/5) No Moon Set
Length of Visible Light 11h 02m
Length of Day
10h 09m
Waxing Crescent, 43% of the Moon is Illuminated
Jun 5
Waxing Crescent
Jun 6
First Quarter
Jun 13
Full
Jun 20
Last Quarter
Jun 27
New

Hourly Weather History & Observations

Time (AWST) Temp. Dew Point Humidity Pressure Visibility Wind Dir Wind Speed Gust Speed Precip Events Conditions
12:00 AM 55 °F 49 °F 75% 30.26 in 16 mi NNW 4.6 mph - -   Partly Cloudy
12:00 AM 55.4 °F 50.0 °F 82% 30.24 in - NNW 4.6 mph - N/A   Clear
12:30 AM 51.8 °F 48.2 °F 88% 30.24 in - NNW 5.8 mph - N/A   Clear
1:00 AM 53.6 °F 48.2 °F 82% 30.24 in - North 2.3 mph - N/A   Clear
1:30 AM 55.4 °F 48.2 °F 77% 30.24 in - North 3.5 mph - N/A   Clear
2:00 AM 55 °F 49 °F 72% 30.25 in - NNE 10.4 mph - -  
2:00 AM 55.4 °F 48.2 °F 77% 30.24 in - NNE 10.4 mph - N/A   Clear
2:30 AM 57.2 °F 48.2 °F 72% 30.24 in - NE 9.2 mph - N/A   Clear
3:00 AM 57 °F 48 °F 65% 30.25 in 16 mi NE 9.2 mph - -   Partly Cloudy
3:00 AM 57.2 °F 48.2 °F 72% 30.24 in 6.2 mi NE 9.2 mph - N/A   Mostly Cloudy
3:30 AM 57.2 °F 48.2 °F 72% 30.24 in - NE 10.4 mph - N/A   Clear
4:00 AM 57.2 °F 48.2 °F 72% 30.24 in - NE 11.5 mph - N/A   Clear
4:30 AM 55.4 °F 48.2 °F 77% 30.24 in - NE 12.7 mph - N/A   Clear
5:00 AM 55 °F 48 °F 70% 30.24 in - NE 11.5 mph - -  
5:00 AM 55.4 °F 48.2 °F 77% 30.24 in - NE 11.5 mph - N/A   Clear
5:30 AM 55.4 °F 48.2 °F 77% 30.24 in - NE 12.7 mph - N/A   Clear
6:00 AM 55 °F 47 °F 66% 30.25 in 19 mi NE 10.4 mph - -   Partly Cloudy
6:00 AM 55.4 °F 46.4 °F 72% 30.24 in - NE 10.4 mph - N/A   Clear
6:30 AM 53.6 °F 46.4 °F 77% 30.24 in - ENE 10.4 mph - N/A   Clear
7:00 AM 53.6 °F 46.4 °F 77% 30.24 in - ENE 11.5 mph - N/A   Clear
7:30 AM 53.6 °F 46.4 °F 77% 30.27 in - ENE 12.7 mph - N/A   Clear
8:00 AM 56 °F 46 °F 60% 30.29 in - ENE 12.7 mph - -  
8:00 AM 55.4 °F 46.4 °F 72% 30.27 in - ENE 12.7 mph - N/A   Clear
8:30 AM 57.2 °F 46.4 °F 67% 30.27 in - ENE 16.1 mph - N/A   Clear
9:00 AM 60 °F 46 °F 50% 30.30 in 19 mi ENE 12.7 mph - -   Partly Cloudy
9:00 AM 60.8 °F 46.4 °F 59% 30.27 in - ENE 12.7 mph - N/A   Clear
9:30 AM 62.6 °F 46.4 °F 55% 30.27 in - ENE 12.7 mph - N/A   Clear
10:00 AM 64.4 °F 46.4 °F 52% 30.27 in - ENE 11.5 mph - N/A   Clear
10:30 AM 66.2 °F 48.2 °F 52% 30.27 in - NE 9.2 mph - N/A   Clear
11:00 AM 69 °F 48 °F 36% 30.28 in - ENE 8.1 mph - -  
11:00 AM 69.8 °F 48.2 °F 46% 30.27 in - ENE 8.1 mph - N/A   Clear
11:30 AM 71.6 °F 46.4 °F 41% 30.27 in - NNE 9.2 mph - N/A   Clear
12:00 PM 72 °F 46 °F 29% 30.26 in 19 mi NE 6.9 mph - -   Smoke
12:00 PM 73.4 °F 46.4 °F 38% 30.24 in - NE 6.9 mph - N/A   Clear
12:30 PM 75.2 °F 44.6 °F 34% 30.24 in - NNE 9.2 mph - N/A   Clear
1:00 PM 75.2 °F 44.6 °F 34% 30.21 in - NNE 8.1 mph - N/A   Clear
1:30 PM 77.0 °F 44.6 °F 32% 30.21 in 6.2 mi NNE 9.2 mph - N/A   Unknown
2:00 PM 76 °F 42 °F 20% 30.22 in - NNE 10.4 mph - -  
2:00 PM 77.0 °F 42.8 °F 29% 30.21 in - NNE 10.4 mph - N/A   Clear
2:30 PM 77.0 °F 41.0 °F 28% 30.21 in - North 8.1 mph - N/A   Clear
3:00 PM 76 °F 39 °F 17% 30.22 in 19 mi NNE 6.9 mph - -   Smoke
3:00 PM 75.2 °F 39.2 °F 27% 30.21 in - NNE 6.9 mph - N/A   Clear
3:30 PM 75.2 °F 41.0 °F 29% 30.21 in - ENE 9.2 mph - N/A   Clear
4:00 PM 73.4 °F 39.2 °F 29% 30.21 in - ENE 8.1 mph - N/A   Clear
4:30 PM 71.6 °F 44.6 °F 38% 30.21 in - ENE 8.1 mph - N/A   Clear
5:00 PM 69 °F 47 °F 34% 30.23 in - East 6.9 mph - -  
5:00 PM 68.0 °F 46.4 °F 46% 30.21 in - East 6.9 mph - N/A   Clear
5:30 PM 64.4 °F 50.0 °F 59% 30.21 in - East 5.8 mph - N/A   Clear
6:00 PM 61 °F 49 °F 55% 30.25 in 19 mi East 4.6 mph - -   Smoke
6:00 PM 60.8 °F 48.2 °F 63% 30.24 in - East 4.6 mph - N/A   Clear
6:30 PM 57.2 °F 48.2 °F 72% 30.24 in - ESE 4.6 mph - N/A   Clear
7:00 PM 55.4 °F 48.2 °F 77% 30.24 in - ESE 3.5 mph - N/A   Clear
7:30 PM 55.4 °F 48.2 °F 77% 30.24 in - Calm Calm - N/A   Clear
8:00 PM 53 °F 48 °F 77% 30.27 in - NE 4.6 mph - -  
8:00 PM 53.6 °F 48.2 °F 82% 30.24 in - NE 4.6 mph - N/A   Clear
8:30 PM 59.0 °F 46.4 °F 63% 30.24 in - ENE 6.9 mph - N/A   Clear
9:00 PM 59 °F 45 °F 50% 30.28 in 16 mi ENE 8.1 mph - -   Partly Cloudy
9:00 PM 59.0 °F 44.6 °F 59% 30.27 in - ENE 8.1 mph - N/A   Clear
9:30 PM 59.0 °F 44.6 °F 59% 30.27 in - ENE 8.1 mph - N/A   Clear
10:00 PM 59.0 °F 44.6 °F 59% 30.27 in - East 5.8 mph - N/A   Clear
10:30 PM 59.0 °F 42.8 °F 55% 30.27 in - ENE 9.2 mph - N/A   Clear
11:00 PM 59 °F 43 °F 43% 30.27 in - ENE 10.4 mph - -  
11:00 PM 59.0 °F 42.8 °F 55% 30.27 in - ENE 10.4 mph - N/A   Clear
11:30 PM 57.2 °F 42.8 °F 59% 30.27 in - NE 8.1 mph - N/A   Clear